Weather in Dabou

Côte d'Ivoire     5°19′46″N   4°22′32″W
temp.,
°C
wind,
m/s
gust,
m/s
humid.,
%
clouds,
%
prec.,
mm/h
press.,
hPa
HPBL,
m
14 april, wed
wed1400:00+28sw3485100 1.1 1013490
03:00+27sw3483100 0.6 1010373
06:00+28s3483100 0.6 1011444
09:00+29ssw457499 0.0 1013800
12:00+29ssw447287 0.0 1012710
15:00+29ssw55748 0.0 1009611
18:00+28ssw788010 0.0 1009615
21:00+28ssw578226 0.0 1011528
15 april, thu
thu1500:00+28ssw468464 0.1 1011618
03:00+27ssw4584100 1.1 1009565
06:00+27sw5684100 1.2 1010541
09:00+28wsw4578100 0.1 1012774
12:00+29sw657636 0.1 1011798
15:00+29ssw667437 0.1 1008761
18:00+28sw567979 0.1 1009581
21:00+28ssw6782100 0.0 1010527
16 april, fri
fri1600:00+28sw6782100 0.0 1009641
03:00+28ssw6782100 0.0 1007688
06:00+28sw5783100 0.1 1009698
09:00+29wsw6778100 0.3 1011784
12:00+29sw7776100 0.5 1010695
15:00+29sw777685 0.1 1008711
18:00+28sw678111 0.1 1008676
21:00+28sw57824 0.1 1009644
17 april, sat
sat1700:00+28sw568114 0.5 1009649
03:00+28sw678228 0.0 1008671
06:00+27wsw578469 0.3 1009641
09:00+28wsw468198 1.4 1012645
12:00+28sw667796 1.6 1011779
15:00+28sw7776100 0.1 1008730
18:00+28sw678014 0.1 1009630
21:00+28sw578295 0.1 1010666
18 april, sun
sun1800:00+28sw5783100 0.3 1010636
03:00+27sw568299 0.1 1009638
06:00+27sw468336 1.9 1010509
09:00+28w348088 2.9 1012412
12:00+28sw447899 4.1 1011524
15:00+29sw547467 0.5 1008673
18:00+28ssw56787 0.5 1009545
21:00+28ssw568245 0.0 1010498